1511773200.5,26041,7.56,73026.0,-9.37,-10.49,-10.89,0,*50
1511773201.71,26042,7.56,73026.0,-9.35,-10.45,-10.85,0,*51
1511773202.92,26043,7.56,73024.0,-9.35,-10.49,-10.89,0,*50
1511773204.16,26044,7.56,73024.3,-9.33,-10.57,-10.85,0,*52
1511773205.41,26045,7.56,73024.5,-9.35,-10.63,-10.97,0,*51
1511773206.67,26046,7.56,73026.8,-9.33,-10.97,-11.33,0,*50
1511773207.95,26047,7.56,73024.0,-9.33,-10.97,-11.29,0,*5A
1511773209.21,26048,7.56,73026.5,-9.33,-10.97,-11.33,0,*5E
1511773210.48,26049,7.56,73020.8,-9.33,-10.97,-11.33,0,*5F
1511773211.72,26050,7.56,73026.5,-9.31,-10.93,-11.29,0,*5A
1511773212.94,26051,7.56,73024.3,-9.31,-10.93,-11.15,0,*54
1511773214.15,26052,7.56,73024.5,-9.31,-10.85,-11.15,0,*50
1511773215.4,26053,7.56,73024.3,-9.29,-10.93,-11.15,0,*5F
1511773216.64,26054,7.56,73026.5,-9.29,-10.85,-11.15,0,*5F
1511773217.91,26055,7.56,73026.5,-9.29,-10.93,-11.29,0,*56
1511773219.16,26056,7.56,73024.3,-9.29,-10.97,-11.23,0,*5B
1511773220.41,26057,7.56,73028.0,-9.29,-10.97,-11.41,0,*5E
1511773221.68,26058,7.56,73026.5,-9.29,-11.15,-11.55,0,*5F
1511773222.92,26059,7.56,73028.3,-9.27,-11.23,-11.63,0,*50
1511773224.17,26060,7.56,73022.8,-9.27,-11.19,-11.63,0,*53
1511773225.43,26061,7.56,73022.3,-9.27,-11.33,-11.73,0,*5B
1511773226.67,26062,7.56,73024.8,-9.23,-11.23,-11.63,0,*5C
1511773227.91,26063,7.56,73026.3,-9.27,-11.19,-11.51,0,*51
1511773229.15,26064,7.56,73026.5,-9.23,-11.19,-11.63,0,*53
1511773230.38,26065,7.56,73026.0,-9.23,-11.19,-11.59,0,*5B
1511773231.61,26066,7.56,73026.0,-9.23,-11.19,-11.59,0,*58
1511773232.84,26067,7.56,73022.0,-9.23,-11.11,-11.51,0,*59
1511773234.08,26068,7.56,73024.8,-9.23,-11.07,-11.45,0,*54
1511773235.34,26069,7.56,73024.5,-9.21,-11.19,-11.55,0,*59
1511773236.6,26070,7.56,73024.3,-9.21,-11.19,-11.59,0,*5D
1511773237.9,26071,7.56,73026.0,-9.21,-11.29,-11.55,0,*53
1511773239.16,26072,7.56,73024.3,-9.21,-11.15,-11.55,0,*5F
1511773240.4,26073,7.56,73026.5,-9.21,-11.01,-11.45,0,*5A
1511773241.65,26074,7.56,73024.0,-9.21,-11.01,-11.41,0,*59
1511773242.87,26075,7.56,73024.5,-9.19,-10.97,-11.41,0,*5D
1511773244.12,26076,7.56,73022.3,-9.19,-10.97,-11.33,0,*5B
1511773245.35,26077,7.56,73026.3,-9.21,-10.89,-11.19,0,*56
1511773246.57,26078,7.56,73022.3,-9.19,-10.89,-11.19,0,*52
1511773247.78,26079,7.56,73026.0,-9.19,-10.85,-11.19,0,*5F
1511773249.02,26080,7.56,73022.0,-9.19,-10.75,-11.15,0,*5A
1511773250.29,26081,7.56,73026.0,-9.17,-10.71,-11.01,0,*54
1511773251.55,26082,7.56,73024.3,-9.17,-10.71,-11.01,0,*57
1511773252.82,26083,7.56,73022.5,-9.15,-10.79,-11.01,0,*5C
1511773254.08,26084,7.56,73020.0,-9.17,-10.79,-11.11,0,*58
1511773255.35,26085,7.56,73018.8,-9.15,-10.79,-11.15,0,*5F
1511773256.61,26086,7.56,73022.0,-9.15,-10.79,-11.15,0,*5C
1511773257.84,26087,7.56,73020.3,-9.15,-10.85,-11.11,0,*5A
1511773259.11,26088,7.56,73026.0,-9.11,-10.75,-11.11,0,*5E
1511773260.4,26089,7.56,73022.8,-9.11,-10.75,-11.07,0,*58
1511773261.65,26090,7.56,73026.3,-9.13,-10.75,-10.97,0,*5A
1511773262.91,26091,7.56,73024.5,-9.11,-10.75,-11.11,0,*56
1511773264.19,26092,7.56,73020.3,-9.11,-10.67,-10.97,0,*59
1511773265.46,26093,7.56,73022.0,-9.11,-10.75,-10.97,0,*5B
1511773266.74,26094,7.56,73020.8,-9.11,-10.67,-10.97,0,*5F
1511773268.02,26095,7.56,73020.8,-9.11,-10.67,-10.97,0,*5E
1511773269.25,26096,7.56,73020.5,-9.07,-10.57,-10.89,0,*56
1511773270.5,26097,7.56,73024.3,-9.09,-10.63,-10.89,0,*5E
1511773271.76,26098,7.56,73022.8,-9.07,-10.63,-10.89,0,*5F
1511773273.0,26099,7.56,73026.0,-9.07,-10.57,-10.93,0,*52
1511773274.21,26100,7.56,73030.0,-9.05,-10.85,-11.23,0,*54
1511773275.5,26101,7.56,73028.3,-9.07,-11.29,-11.59,0,*5D
1511773276.78,26102,7.56,73026.8,-9.07,-11.73,-12.15,0,*5A
1511773278.04,26103,7.56,73030.0,-9.03,-11.81,-12.21,0,*55
1511773279.28,26104,7.56,73024.8,-9.05,-12.47,-12.83,0,*55
1511773280.52,26105,7.56,73024.5,-9.05,-12.25,-12.53,0,*5D
1511773281.79,26106,7.56,73024.8,-9.07,-12.11,-12.43,0,*5A
1511773283.02,26107,7.56,73024.3,-9.07,-12.03,-12.43,0,*58
1511773284.31,26108,7.56,73030.5,-9.07,-12.15,-12.71,0,*51
1511773285.55,26109,7.56,73026.8,-9.05,-12.53,-13.11,0,*57
1511773286.81,26110,7.56,73024.8,-9.05,-13.33,-13.79,0,*56
1511773288.04,26111,7.56,73024.8,-9.07,-13.11,-13.43,0,*5C
1511773289.3,26112,7.56,73028.5,-9.07,-12.75,-13.23,0,*5A
1511773290.56,26113,7.56,73024.0,-9.07,-13.01,-13.51,0,*5C
1511773291.79,26114,7.56,73028.8,-9.07,-13.15,-13.55,0,*5A
1511773293.02,26115,7.56,73024.5,-9.07,-13.11,-13.51,0,*5B
1511773294.29,26116,7.56,73024.8,-9.09,-13.29,-13.61,0,*5E
1511773295.54,26117,7.56,73024.0,-9.09,-13.29,-13.73,0,*5C
1511773296.8,26118,7.63,73028.0,-9.07,-13.23,-13.61,0,*54
1511773298.03,26119,7.56,73024.8,-9.07,-13.11,-13.51,0,*57
1511773299.29,26120,7.56,73026.3,-9.11,-13.01,-13.47,0,*5C
1511773300.53,26121,7.63,73024.8,-9.09,-13.01,-13.43,0,*50
1511773301.77,26122,7.56,73020.8,-9.09,-13.01,-13.43,0,*53
1511773303.02,26123,7.56,73022.8,-9.09,-13.01,-13.51,0,*51
1511773304.25,26124,7.56,73022.5,-9.11,-13.15,-13.55,0,*5E
1511773305.52,26125,7.63,73024.5,-9.11,-13.29,-13.65,0,*53
1511773306.78,26126,7.56,73020.3,-9.11,-13.33,-13.93,0,*52
1511773308.01,26127,7.56,73022.8,-9.11,-13.15,-13.55,0,*5D
1511773309.24,26128,7.63,73022.5,-9.11,-13.15,-13.47,0,*51
1511773310.51,26129,7.63,73022.3,-9.11,-12.89,-13.29,0,*5C
1511773311.75,26130,7.56,73018.5,-9.09,-12.71,-13.11,0,*51
1511773312.99,26131,7.56,73016.0,-9.09,-12.97,-13.37,0,*5C
1511773314.23,26132,7.56,73016.8,-9.09,-12.97,-13.37,0,*5F
1511773315.5,26133,7.56,73014.3,-9.11,-12.57,-13.07,0,*58
1511773316.74,26134,7.63,73016.0,-9.11,-12.47,-12.93,0,*52
1511773317.99,26135,7.56,73014.3,-9.09,-12.29,-12.57,0,*5A
1511773319.23,26136,7.56,73014.5,-9.09,-12.15,-12.43,0,*53
1511773320.45,26137,7.63,73016.0,-9.09,-12.03,-12.43,0,*55
1511773321.69,26138,7.56,73014.8,-9.09,-11.89,-12.29,0,*57
1511773322.94,26139,7.56,73016.5,-9.09,-11.85,-12.25,0,*56
1511773324.18,26140,7.56,73014.5,-9.09,-12.39,-12.75,0,*59
1511773325.45,26141,7.63,73020.5,-9.07,-12.29,-12.53,0,*53
1511773326.71,26142,7.56,73016.0,-9.07,-12.15,-12.43,0,*5E
1511773327.97,26143,7.56,73020.0,-9.07,-11.97,-12.39,0,*5B
1511773329.21,26144,7.63,73018.5,-9.05,-11.73,-12.21,0,*5D
1511773330.48,26145,7.56,73018.5,-9.05,-11.63,-12.07,0,*59
1511773331.75,26146,7.56,73016.3,-9.05,-11.63,-11.93,0,*54
1511773333.01,26147,7.56,73022.0,-9.05,-11.63,-11.85,0,*52
1511773334.28,26148,7.63,73020.0,-9.05,-11.55,-11.85,0,*58
1511773335.54,26149,7.56,73016.0,-9.05,-11.51,-11.81,0,*59
1511773336.8,26150,7.63,73020.0,-9.03,-11.41,-11.81,0,*56
1511773338.08,26151,7.63,73020.5,-8.99,-11.51,-11.81,0,*54
1511773339.35,26152,7.63,73020.5,-8.99,-11.51,-11.81,0,*57
1511773340.62,26153,7.63,73018.5,-8.99,-11.45,-11.77,0,*5A
1511773341.91,26154,7.63,73018.3,-8.99,-11.33,-11.67,0,*5D
1511773343.2,26155,7.56,73016.5,-8.99,-11.33,-11.63,0,*58
1511773344.46,26156,7.63,73018.0,-8.99,-11.23,-11.59,0,*53
1511773345.71,26157,7.63,73020.5,-8.99,-11.11,-11.59,0,*53
1511773346.98,26158,7.63,73022.0,-8.97,-11.07,-11.59,0,*55
1511773348.21,26159,7.63,73022.5,-8.97,-11.11,-11.51,0,*5B
1511773349.47,26160,7.63,73020.3,-8.97,-11.07,-11.37,0,*56
1511773350.73,26161,7.63,73024.5,-8.95,-10.93,-11.29,0,*56
1511773351.99,26162,7.63,73022.5,-8.95,-10.93,-11.33,0,*5E
1511773353.22,26163,7.56,73022.3,-8.93,-10.89,-11.33,0,*52
1511773354.46,26164,7.63,73026.3,-8.93,-10.93,-11.29,0,*55
1511773355.72,26165,7.63,73024.0,-8.93,-10.75,-11.29,0,*5C
1511773356.96,26166,7.63,73020.5,-8.93,-10.71,-11.01,0,*51
1511773358.23,26167,7.63,73020.8,-8.91,-10.67,-11.01,0,*55
1511773359.43,26168,7.63,73022.0,-8.89,-10.49,-10.85,0,*52
1511773360.64,26169,7.63,73026.0,-8.89,-10.49,-10.93,0,*54
1511773361.85,26170,7.63,73024.3,-8.89,-10.53,-10.97,0,*53
1511773363.05,26171,7.63,73022.8,-8.89,-10.53,-10.93,0,*56
1511773364.35,26172,7.63,73026.0,-8.87,-10.67,-11.07,0,*50
1511773365.58,26173,7.63,73024.0,-8.87,-10.53,-10.93,0,*5A
1511773366.79,26174,7.63,73024.8,-8.85,-10.49,-10.89,0,*5F
1511773368.06,26175,7.63,73024.0,-8.87,-10.67,-10.93,0,*5B
1511773369.33,26176,7.63,73024.5,-8.85,-10.67,-11.07,0,*56
1511773370.56,26177,7.63,73020.5,-8.85,-10.89,-11.33,0,*50
1511773371.82,26178,7.63,73020.8,-8.83,-10.79,-11.29,0,*5D
1511773373.09,26179,7.63,73020.0,-8.83,-10.79,-11.29,0,*5C
1511773374.3,26180,7.63,73020.8,-8.83,-11.01,-11.41,0,*5A
1511773375.59,26181,7.63,73026.3,-8.81,-11.29,-11.59,0,*5A
1511773376.86,26182,7.63,73024.5,-8.83,-11.33,-11.63,0,*59
1511773378.15,26183,7.63,73026.3,-8.81,-11.33,-11.63,0,*5A
1511773379.38,26184,7.63,73022.8,-8.81,-11.19,-11.45,0,*51
1511773380.68,26185,7.63,73018.5,-8.81,-11.29,-11.63,0,*57
1511773381.91,26186,7.63,73022.5,-8.81,-11.15,-11.45,0,*5F
1511773383.18,26187,7.63,73020.3,-8.81,-11.07,-11.41,0,*59
1511773384.42,26188,7.63,73022.8,-8.81,-10.93,-11.45,0,*5E
1511773385.68,26189,7.63,73024.8,-8.77,-10.97,-11.37,0,*57
1511773386.9,26190,7.63,73026.5,-8.75,-11.01,-11.41,0,*52
1511773388.13,26191,7.63,73022.5,-8.75,-11.11,-11.51,0,*53
1511773389.35,26192,7.63,73026.3,-8.75,-11.11,-11.41,0,*51
1511773390.58,26193,7.63,73024.8,-8.75,-10.97,-11.37,0,*5E
1511773391.85,26194,7.63,73022.0,-8.77,-10.89,-11.29,0,*5B
1511773393.08,26195,7.63,73026.0,-8.75,-10.79,-11.19,0,*54
1511773394.32,26196,7.63,73026.3,-8.75,-10.79,-11.23,0,*5E
1511773395.56,26197,7.63,73028.5,-8.75,-10.71,-11.19,0,*5E
1511773396.82,26198,7.63,73026.3,-8.73,-10.67,-11.11,0,*58
1511773398.09,26199,7.63,73020.8,-8.71,-10.67,-11.07,0,*5C
1511773399.33,26200,7.63,73026.0,-8.71,-10.93,-11.33,0,*53
1511773400.56,26201,7.63,73024.8,-8.71,-11.15,-11.51,0,*59
1511773401.79,26202,7.63,73024.5,-8.71,-11.19,-11.51,0,*56
1511773403.03,26203,7.63,73028.0,-8.71,-11.19,-11.63,0,*56
1511773404.29,26204,7.63,73024.8,-8.71,-11.63,-11.97,0,*57
1511773405.52,26205,7.63,73026.0,-8.71,-11.73,-12.03,0,*59
1511773406.76,26206,7.63,73028.0,-8.71,-11.63,-12.03,0,*5B
1511773408.0,26207,7.63,73024.8,-8.71,-12.29,-12.83,0,*5F
1511773409.24,26208,7.63,73026.0,-8.69,-12.47,-12.97,0,*54
1511773410.45,26209,7.63,73028.0,-8.71,-12.43,-12.89,0,*57
1511773411.69,26210,7.63,73030.0,-8.71,-12.89,-13.33,0,*59
1511773412.93,26211,7.63,73030.3,-8.71,-13.01,-13.55,0,*59
1511773414.19,26212,7.63,73028.8,-8.73,-13.19,-13.61,0,*56
1511773415.46,26213,7.63,73026.5,-8.73,-13.07,-13.61,0,*58
1511773416.68,26214,7.63,73028.5,-8.73,-13.07,-13.47,0,*5B
1511773417.94,26215,7.63,73024.5,-8.73,-13.01,-13.47,0,*5C
1511773419.23,26216,7.63,73030.0,-8.73,-13.01,-13.33,0,*5C
1511773420.47,26217,7.63,73028.5,-8.73,-12.89,-13.23,0,*5D
1511773421.7,26218,7.63,73024.3,-8.73,-12.93,-13.47,0,*5B
1511773422.96,26219,7.63,73024.8,-8.73,-13.15,-13.61,0,*51
1511773424.19,26220,7.63,73026.0,-8.73,-13.07,-13.51,0,*5B
1511773425.45,26221,7.63,73024.5,-8.73,-12.61,-13.15,0,*5B
1511773426.69,26222,7.63,73024.5,-8.75,-12.53,-12.93,0,*50
1511773427.9,26223,7.63,73026.0,-8.75,-12.89,-13.23,0,*5C
1511773429.1,26224,7.63,73030.5,-8.75,-13.47,-13.93,0,*53
1511773430.36,26225,7.63,73024.3,-8.73,-13.33,-13.73,0,*59
1511773431.61,26226,7.63,73024.5,-8.75,-13.37,-13.79,0,*52
1511773432.87,26227,7.63,73024.3,-8.77,-13.43,-13.83,0,*57
1511773434.14,26228,7.63,73026.3,-8.77,-13.29,-13.73,0,*5B
1511773435.37,26229,7.63,73026.3,-8.77,-13.43,-13.93,0,*58
1511773436.57,26230,7.63,73026.0,-8.75,-13.47,-13.93,0,*56
1511773437.82,26231,7.63,73030.5,-8.77,-13.51,-13.93,0,*52
1511773439.1,26232,7.63,73030.3,-8.77,-13.37,-13.79,0,*55
1511773440.33,26233,7.63,73030.5,-8.77,-13.43,-13.93,0,*53
1511773441.62,26234,7.63,73026.5,-8.77,-13.37,-13.79,0,*53
1511773442.86,26235,7.63,73026.5,-8.75,-13.19,-13.61,0,*55
1511773444.09,26236,7.63,73026.5,-8.81,-13.11,-13.43,0,*55
1511773445.34,26237,7.63,73024.3,-8.81,-13.01,-13.47,0,*51
1511773446.6,26238,7.63,73026.5,-8.81,-13.01,-13.43,0,*5A
1511773447.85,26239,7.63,73024.0,-8.81,-12.83,-13.15,0,*53
1511773449.11,26240,7.63,73024.3,-8.81,-12.71,-13.15,0,*50
1511773450.35,26241,7.63,73026.8,-8.77,-12.43,-12.93,0,*56
1511773451.59,26242,7.63,73026.5,-8.77,-12.43,-12.97,0,*51
1511773452.85,26243,7.63,73024.5,-8.77,-12.71,-13.11,0,*5E
1511773454.12,26244,7.63,73026.3,-8.77,-12.43,-12.79,0,*57
1511773455.39,26245,7.63,73022.5,-8.77,-12.25,-12.65,0,*5B
1511773456.66,26246,7.63,73026.3,-8.77,-12.07,-12.43,0,*5C
1511773457.9,26247,7.63,73022.5,-8.75,-11.93,-12.39,0,*5C
1511773459.14,26248,7.63,73024.8,-8.75,-11.89,-12.21,0,*51
1511773460.4,26249,7.63,73026.8,-8.75,-11.89,-12.35,0,*55
1511773461.67,26250,7.63,73024.0,-8.77,-11.97,-12.25,0,*51
1511773462.96,26251,7.63,73024.5,-8.73,-11.77,-12.07,0,*5A
1511773464.24,26252,7.63,73026.0,-8.73,-11.77,-12.15,0,*5A
1511773465.48,26253,7.63,73024.3,-8.75,-11.89,-12.39,0,*52
1511773466.72,26254,7.63,73024.5,-8.75,-12.07,-12.47,0,*59
1511773468.01,26255,7.63,73024.3,-8.73,-12.07,-12.53,0,*5B
1511773469.3,26256,7.63,73026.3,-8.73,-12.07,-12.61,0,*59
1511773470.53,26257,7.63,73028.0,-8.73,-12.03,-12.47,0,*58
1511773471.79,26258,7.63,73024.8,-8.71,-11.85,-12.15,0,*5F
1511773473.03,26259,7.63,73024.8,-8.71,-11.77,-12.03,0,*54
1511773474.29,26260,7.63,73026.5,-8.71,-11.63,-11.97,0,*55
1511773475.56,26261,7.69,73030.5,-8.71,-11.77,-12.11,0,*5C
1511773476.82,26262,7.63,73026.0,-8.71,-11.85,-12.11,0,*52
1511773478.08,26263,7.69,73028.5,-8.71,-11.77,-12.15,0,*5A
1511773479.32,26264,7.63,73024.5,-8.71,-11.63,-12.03,0,*5F
1511773480.58,26265,7.69,73028.8,-8.71,-11.85,-12.11,0,*55
1511773481.84,26266,7.69,73030.3,-8.71,-11.77,-12.15,0,*5F
1511773483.13,26267,7.63,73024.0,-8.69,-11.77,-12.11,0,*53
1511773484.39,26268,7.63,73022.5,-8.69,-11.73,-12.03,0,*5B
1511773485.65,26269,7.63,73026.8,-8.67,-11.55,-11.93,0,*5A
1511773486.91,26270,7.63,73024.8,-8.67,-11.33,-11.81,0,*51
1511773488.19,26271,7.63,73026.8,-8.69,-11.33,-11.77,0,*57
1511773489.49,26272,7.69,73026.5,-8.69,-11.29,-11.63,0,*5A
1511773490.73,26273,7.69,73024.5,-8.67,-11.23,-11.55,0,*5A
1511773491.94,26274,7.63,73024.3,-8.67,-11.23,-11.45,0,*5C
1511773493.18,26275,7.63,73024.8,-8.65,-11.11,-11.41,0,*5A
1511773494.44,26276,7.63,73026.0,-8.65,-10.97,-11.33,0,*53
1511773495.7,26277,7.69,73028.0,-8.65,-10.97,-11.29,0,*59
1511773496.91,26278,7.69,73026.3,-8.63,-10.93,-11.23,0,*5E
1511773498.15,26279,7.63,73024.0,-8.63,-10.97,-11.29,0,*51
1511773499.39,26280,7.69,73026.8,-8.61,-10.85,-11.23,0,*5C
1511773500.62,26281,7.63,73026.0,-8.61,-10.85,-11.23,0,*5D
1511773501.85,26282,7.63,73028.5,-8.61,-10.85,-11.19,0,*57
1511773503.08,26283,7.63,73024.0,-8.59,-10.75,-11.01,0,*5B
1511773504.34,26284,7.63,73024.3,-8.59,-10.63,-11.07,0,*5D
1511773505.55,26285,7.69,73026.0,-8.59,-10.49,-11.01,0,*52
1511773506.75,26286,7.63,73024.3,-8.59,-10.49,-10.93,0,*5B
1511773507.95,26287,7.69,73026.5,-8.59,-10.53,-10.93,0,*51
1511773509.15,26288,7.69,73026.0,-8.59,-10.53,-10.93,0,*5E
1511773510.39,26289,7.69,73024.0,-8.51,-10.49,-10.89,0,*57
1511773511.62,26290,7.69,73026.5,-8.51,-10.57,-10.89,0,*50
1511773512.83,26291,7.69,73030.8,-8.55,-10.49,-10.89,0,*5A
1511773514.06,26292,7.63,73026.0,-8.51,-10.35,-10.85,0,*5A
1511773515.29,26293,7.69,73030.0,-8.51,-10.35,-10.85,0,*5B
1511773516.51,26294,7.69,73026.8,-8.49,-10.15,-10.53,0,*5C
1511773517.72,26295,7.69,73030.0,-8.49,-10.15,-10.53,0,*5D
1511773518.94,26296,7.69,73028.3,-8.49,-10.15,-10.57,0,*5A
1511773520.18,26297,7.69,73030.3,-8.47,-10.15,-10.57,0,*55
1511773521.42,26298,7.63,73024.8,-8.47,-10.15,-10.57,0,*5A
1511773522.66,26299,7.63,73026.3,-8.47,-10.15,-10.53,0,*5F
1511773523.92,26300,7.69,73028.0,-8.47,-10.01,-10.41,0,*58
1511773525.15,26301,7.69,73026.3,-8.43,-10.05,-10.35,0,*5A
1511773526.41,26302,7.69,73030.5,-8.43,-10.05,-10.41,0,*5A
1511773527.66,26303,7.69,73028.5,-8.43,-10.05,-10.41,0,*5B
1511773528.89,26304,7.69,73028.8,-8.43,-10.09,-10.49,0,*58
1511773530.09,26305,7.69,73030.0,-8.41,-10.05,-10.45,0,*5B
1511773531.3,26306,7.69,73030.0,-8.41,-10.15,-10.57,0,*5A
1511773532.52,26307,7.69,73030.3,-8.41,-10.15,-10.57,0,*5B
1511773533.76,26308,7.69,73028.8,-8.39,-10.15,-10.57,0,*5B
1511773534.99,26309,7.69,73028.0,-8.39,-10.19,-10.49,0,*59
1511773536.26,26310,7.69,73028.3,-8.39,-10.19,-10.63,0,*59
1511773537.5,26311,7.69,73032.0,-8.39,-10.19,-10.57,0,*5F
1511773538.74,26312,7.69,73032.3,-8.35,-10.19,-10.57,0,*50
1511773539.95,26313,7.69,73028.0,-8.37,-10.15,-10.53,0,*5B
1511773541.16,26314,7.69,73032.0,-8.37,-10.01,-10.45,0,*5E
1511773542.39,26315,7.69,73030.0,-8.35,-10.09,-10.45,0,*55
1511773543.62,26316,7.69,73032.5,-8.35,-10.19,-10.53,0,*50
1511773544.84,26317,7.69,73032.5,-8.33,-10.15,-10.53,0,*5B
1511773546.08,26318,7.69,73032.3,-8.33,-10.15,-10.63,0,*57
1511773547.34,26319,7.69,73032.3,-8.33,-10.41,-10.79,0,*5C
1511773548.55,26320,7.69,73028.8,-8.33,-10.53,-10.93,0,*51
1511773549.75,26321,7.69,73034.3,-8.29,-10.53,-10.89,0,*50
1511773550.96,26322,7.69,73028.8,-8.29,-10.49,-10.89,0,*58
1511773552.2,26323,7.69,73028.0,-8.29,-10.41,-10.89,0,*51
1511773553.44,26324,7.69,73030.5,-8.29,-10.41,-10.89,0,*56
1511773554.68,26325,7.69,73030.3,-8.29,-10.41,-10.89,0,*57
1511773555.89,26326,7.69,73030.0,-8.25,-10.35,-10.85,0,*57
1511773557.13,26327,7.69,73028.8,-8.29,-10.41,-10.89,0,*55
1511773558.33,26328,7.69,73030.8,-8.25,-10.45,-10.89,0,*52
1511773559.56,26329,7.69,73032.5,-8.27,-10.57,-10.93,0,*59
1511773560.8,26330,7.69,73030.0,-8.25,-10.89,-11.29,0,*50
1511773562.06,26331,7.69,73028.8,-8.25,-11.07,-11.55,0,*5D
1511773563.3,26332,7.69,73030.3,-8.27,-11.01,-11.45,0,*5B
1511773564.53,26333,7.69,73028.5,-8.25,-11.19,-11.55,0,*50
1511773565.79,26334,7.69,73030.5,-8.27,-11.07,-11.45,0,*5B
1511773567.0,26335,7.69,73026.3,-8.25,-10.93,-11.45,0,*54
1511773568.23,26336,7.69,73026.5,-8.27,-10.85,-11.41,0,*56
1511773569.46,26337,7.69,73028.5,-8.25,-10.89,-11.29,0,*57
1511773570.68,26338,7.69,73030.5,-8.25,-11.01,-11.45,0,*53
1511773571.92,26339,7.69,73028.3,-8.23,-10.97,-11.41,0,*5E
1511773573.15,26340,7.69,73030.0,-8.21,-10.85,-11.29,0,*5F
1511773574.39,26341,7.69,73026.0,-8.21,-11.41,-11.85,0,*51
1511773575.68,26342,7.69,73030.5,-8.23,-12.11,-12.65,0,*5B
1511773576.91,26343,7.69,73028.3,-8.23,-12.39,-13.11,0,*52
1511773578.14,26344,7.69,73028.5,-8.23,-12.93,-13.47,0,*56
1511773579.37,26345,7.69,73028.0,-8.23,-12.97,-13.47,0,*53
1511773580.62,26346,7.69,73028.5,-8.25,-12.83,-13.37,0,*54
1511773581.86,26347,7.69,73030.5,-8.25,-12.53,-12.97,0,*53
1511773583.1,26348,7.69,73028.3,-8.25,-12.29,-12.71,0,*59
1511773584.37,26349,7.69,73030.8,-8.25,-12.15,-12.71,0,*57
1511773585.6,26350,7.69,73030.0,-8.25,-11.97,-12.43,0,*57
1511773586.85,26351,7.69,73028.0,-8.25,-11.73,-12.15,0,*5F
1511773588.1,26352,7.69,73024.0,-8.25,-11.45,-11.89,0,*5F
1511773589.36,26353,7.69,73024.8,-8.25,-11.33,-11.67,0,*5F
1511773590.57,26354,7.69,73022.3,-8.25,-11.01,-11.45,0,*59
1511773591.83,26355,7.69,73022.3,-8.23,-10.89,-11.29,0,*55
1511773593.09,26356,7.69,73024.0,-8.23,-10.85,-11.29,0,*5A
1511773594.35,26357,7.69,73026.8,-8.23,-10.79,-11.15,0,*57
1511773595.62,26358,7.69,73026.0,-8.23,-10.67,-10.97,0,*5C
1511773596.85,26359,7.69,73020.5,-8.23,-10.57,-10.89,0,*51
1511773598.06,26360,7.69,73026.0,-8.21,-10.53,-10.89,0,*5D
1511773599.27,26361,7.69,73026.5,-8.21,-10.45,-10.89,0,*5B
1511773600.47,26362,7.69,73024.8,-8.21,-10.45,-10.85,0,*54
1511773601.71,26363,7.69,73024.8,-8.21,-10.19,-10.71,0,*57
1511773602.98,26364,7.69,73030.8,-8.19,-10.15,-10.63,0,*54
1511773604.24,26365,7.69,73026.5,-8.19,-10.23,-10.63,0,*50
1511773605.48,26366,7.69,73028.0,-8.17,-10.23,-10.63,0,*5D
1511773606.72,26367,7.69,73026.5,-8.19,-10.15,-10.53,0,*54
1511773607.92,26368,7.69,73028.3,-8.17,-10.09,-10.49,0,*53
1511773609.16,26369,7.69,73026.3,-8.17,-10.15,-10.67,0,*53
1511773610.4,26370,7.69,73024.5,-8.17,-10.15,-10.63,0,*5F
1511773611.6,26371,7.69,73022.3,-8.13,-9.93,-10.49,0,*64
1511773612.81,26372,7.69,73026.8,-8.13,-9.97,-10.35,0,*68
1511773614.02,26373,7.69,73026.5,-8.13,-9.79,-10.23,0,*6E
1511773615.23,26374,7.69,73024.0,-8.13,-9.75,-10.19,0,*6C
1511773616.43,26375,7.69,73024.0,-8.13,-9.79,-10.23,0,*68
1511773617.67,26376,7.69,73024.0,-8.07,-9.71,-10.09,0,*6E
1511773618.91,26377,7.69,73022.8,-8.11,-9.71,-10.15,0,*65
1511773620.17,26378,7.69,73026.3,-8.07,-9.57,-10.01,0,*6C
1511773621.4,26379,7.69,73026.8,-8.07,-9.67,-10.01,0,*6E
1511773622.63,26380,7.69,73024.3,-8.07,-9.67,-10.15,0,*6D
1511773623.86,26381,7.69,73030.8,-8.03,-9.67,-10.09,0,*65
1511773625.08,26382,7.69,73030.8,-8.05,-9.71,-10.15,0,*6A
1511773626.32,26383,7.69,73030.3,-8.03,-9.79,-10.27,0,*64
1511773627.57,26384,7.69,73028.8,-8.03,-11.19,-11.77,0,*58
1511773628.83,26385,7.69,73026.5,-8.03,-11.51,-12.03,0,*55
1511773630.09,26386,7.69,73024.5,-8.03,-11.59,-12.03,0,*5E
1511773631.36,26387,7.69,73024.5,-8.03,-11.67,-12.21,0,*52
1511773632.62,26388,7.69,73026.3,-8.05,-11.81,-12.35,0,*56
1511773633.85,26389,7.69,73028.8,-8.05,-11.81,-12.29,0,*5A
1511773635.11,26390,7.69,73026.8,-8.03,-11.89,-12.43,0,*50
1511773636.36,26391,7.69,73028.5,-8.05,-12.29,-12.79,0,*57
1511773637.59,26392,7.69,73026.0,-8.05,-12.07,-12.47,0,*55
1511773638.83,26393,7.69,73028.3,-8.05,-12.03,-12.53,0,*55
1511773640.12,26394,7.69,73028.0,-8.03,-11.93,-12.35,0,*5E
1511773641.41,26395,7.69,73030.8,-8.03,-11.77,-12.35,0,*55
1511773642.67,26396,7.69,73030.3,-8.05,-11.77,-12.07,0,*51
1511773643.91,26397,7.69,73028.8,-8.05,-11.67,-12.21,0,*55
1511773645.18,26398,7.69,73028.8,-8.07,-12.07,-12.47,0,*5D
1511773646.38,26399,7.69,73028.8,-8.05,-12.03,-12.47,0,*5A
1511773647.62,26400,7.69,73028.3,-8.05,-11.77,-12.29,0,*55
1511773648.86,26401,7.69,73024.5,-8.05,-12.35,-12.89,0,*5B
1511773650.12,26402,7.75,73028.0,-8.05,-13.01,-13.37,0,*5A
1511773651.35,26403,7.69,73026.8,-8.05,-12.65,-13.15,0,*58
1511773652.58,26404,7.69,73024.3,-8.07,-12.43,-12.93,0,*56
1511773653.79,26405,7.69,73024.0,-8.05,-12.03,-12.47,0,*58
1511773655.02,26406,7.69,73024.8,-8.07,-12.03,-12.43,0,*5D
1511773656.27,26407,7.69,73024.8,-8.05,-12.29,-12.79,0,*5F
1511773657.5,26408,7.69,73026.8,-8.05,-12.93,-13.37,0,*5A
1511773658.74,26409,7.75,73024.0,-8.11,-13.19,-13.65,0,*5A
1511773659.97,26410,7.69,73024.8,-8.11,-12.97,-13.43,0,*51
1511773661.24,26411,7.69,73026.3,-8.07,-12.75,-13.19,0,*54
1511773662.5,26412,7.69,73026.0,-8.07,-12.65,-13.15,0,*5A
1511773663.73,26413,7.69,73030.0,-8.07,-12.47,-12.93,0,*54
1511773664.97,26414,7.69,73026.5,-8.11,-12.47,-12.93,0,*54
1511773666.24,26415,7.69,73030.3,-8.11,-12.21,-12.71,0,*59
1511773667.51,26416,7.69,73028.3,-8.11,-12.53,-12.93,0,*53
1511773668.77,26417,7.69,73028.3,-8.11,-12.53,-13.11,0,*59
1511773670.04,26418,7.69,73028.0,-8.11,-12.53,-13.11,0,*56
1511773671.29,26419,7.69,73026.5,-8.11,-12.65,-13.15,0,*56
1511773672.55,26420,7.69,73030.0,-8.11,-12.57,-13.11,0,*59
1511773673.79,26421,7.75,73028.5,-8.11,-12.47,-13.07,0,*5E
1511773675.02,26422,7.69,73028.3,-8.11,-12.97,-13.55,0,*57
1511773676.25,26423,7.69,73024.0,-8.11,-13.43,-13.93,0,*54
1511773677.48,26424,7.69,73024.3,-8.11,-13.19,-13.69,0,*59
1511773678.74,26425,7.69,73026.8,-8.11,-12.93,-13.37,0,*50
1511773679.99,26426,7.69,73026.0,-8.13,-12.61,-13.01,0,*59
1511773681.24,26427,7.75,73026.8,-8.13,-12.29,-12.75,0,*56
1511773682.5,26428,7.69,73024.8,-8.13,-12.11,-12.57,0,*52
1511773683.73,26429,7.69,73024.3,-8.13,-11.97,-12.39,0,*56
1511773684.96,26430,7.69,73024.3,-8.13,-11.73,-12.25,0,*59
1511773686.25,26431,7.69,73026.3,-8.11,-11.55,-11.97,0,*54
1511773687.51,26432,7.75,73028.8,-8.11,-11.41,-11.85,0,*51
1511773688.8,26433,7.69,73024.8,-8.11,-11.51,-11.97,0,*52
1511773690.08,26434,7.69,73024.5,-8.11,-11.51,-12.07,0,*5F
1511773691.34,26435,7.75,73028.8,-8.11,-11.85,-12.39,0,*5A
1511773692.61,26436,7.75,73028.5,-8.11,-12.25,-12.71,0,*5C
1511773693.85,26437,7.69,73024.5,-8.11,-12.47,-13.11,0,*5E
1511773695.09,26438,7.69,73026.8,-8.11,-12.97,-13.51,0,*58
1511773696.35,26439,7.75,73030.5,-8.07,-12.79,-13.19,0,*52
1511773697.59,26440,7.69,73024.0,-8.07,-12.43,-12.93,0,*56
1511773698.88,26441,7.69,73024.8,-8.11,-12.35,-12.79,0,*55
1511773700.15,26442,7.75,73030.3,-8.11,-12.25,-12.71,0,*5F
1511773701.38,26443,7.69,73024.8,-8.11,-12.39,-12.93,0,*5F
1511773702.65,26444,7.75,73028.0,-8.11,-12.35,-12.93,0,*54
1511773703.88,26445,7.75,73026.0,-8.11,-12.39,-12.93,0,*59
1511773705.12,26446,7.69,73026.3,-8.11,-12.47,-13.07,0,*5F
1511773706.41,26447,7.69,73022.8,-8.11,-12.35,-12.79,0,*53